Вернуться в каталог

STARLINK-3251

АктивенСвязьVLEO
NORAD 49729·PAYLOAD·🇺🇸 United States

Запущен Dec 2, 2021 с Cape Canaveral Space Force Station

Loading…

Ближайшие Пролёты (ближайшие 24 часа)

TLE

СвежийSource: CelesTrak SupGP

Эпоха: Sep 15, 2026, 01:55 UTC

1 49729C 21115F   26258.08034722 -.00004654  00000+0 -14973-3 0  2585
2 49729  53.1601  17.0408 0001102  88.0238 271.6091 15.31687428    14

Отслеживайте STARLINK-3251 в реальном времени с AllMySat

Download on the App Store